Location: Azul
(36.7830°S, 59.8500°W)
Time: 18:03:17
(UTC-03:00)

BEESAT - Pass Details

Date: 30 October 2021
Orbit: 700 x 707 km, 98.6° (Epoch: 06 December)

Event Time Altitude Azimuth Distance (km) Brightness Sun altitude
Rises 19:55:50 0° 11° (N) 3,090 ? -5.6°
Reaches altitude 10° 19:58:04 10° 9° (N) 2,180 ? -6.0°
Maximum altitude 20:02:51 76° 283° (WNW) 741 ? -6.8°
Drops below altitude 10° 20:07:43 10° 196° (SSW) 2,211 ? -7.7°
Sets 20:10:00 0° 194° (SSW) 3,138 ? -8.2°
